Location: Dammartin
(48.9032°N, 1.6195°E)
Time: 09:49:05
(UTC+00:00)

Cosmos 1745 Rocket - Pass Details

Date: 03 February 2023
Orbit: 952 x 998 km, 83.0° (Epoch: 28 March)

Event Time Altitude Azimuth Distance (km) Brightness Sun altitude
Rises 19:13:15 0° 349° (N) 3,701 7.2 -23.1°
Reaches altitude 10° 19:15:47 10° 349° (NNW) 2,742 6.5 -23.5°
Maximum altitude 19:22:04 78° 264° (W) 995 4.0 -24.5°
Drops below altitude 10° 19:28:13 10° 179° (S) 2,691 6.2 -25.5°
Sets 19:30:41 0° 178° (S) 3,628 6.9 -25.9°
